SCP
0 0 0 0 0 0 0 0 0 0 0 0 1 2 3 3 3 3 4 3 3 4 4 3 2 2 2 2 2 3 3 4 4 4 3 3 3 3 3 3 2 2 1 1
0 0 0 0 0 0 0 0 0 0 0 1 1 2 3 3 3 3 4 4 3 4 4 3 2 2 2 3 4 5 5 5 4 4 3 3 3 3 3 3 2 2 1 1
0 0 0 0 0 0 0 1 1 1 1 1 2 2 2 3 3 3 4 4 4 4 4 3 3 3 3 4 5 6 7 6 4 4 3 2 3 3 4 3 2 1 1 1
0 0 0 0 0 1 1 1 2 2 2 2 2 2 2 2 2 3 3 4 4 5 4 4 4 4 4 4 4 5 5 5 4 3 2 1 2 2 3 3 2 1 1 0
0 0 0 1 1 1 1 1 2 2 2 2 2 2 2 2 2 3 3 4 5 5 5 5 5 4 3 3 3 3 3 3 2 2 1 1 1 2 2 2 2 1 1 0
0 0 0 1 1 1 1 1 2 2 2 2 2 2 2 2 2 3 4 4 4 5 5 5 4 4 3 2 2 2 2 2 2 1 1 1 1 2 2 2 2 1 1 1
0 0 0 1 1 1 1 2 2 2 3 3 2 2 2 2 3 4 4 4 4 4 4 4 3 3 2 2 1 1 1 1 2 2 2 2 2 2 2 2 2 2 1 1
0 0 0 1 1 1 1 2 2 2 3 4 3 3 3 3 4 4 5 4 3 3 3 3 3 2 2 2 1 1 1 1 2 2 2 2 2 2 3 3 2 1 1 0
1 1 1 1 2 2 1 2 2 3 3 4 5 4 4 4 4 6 6 5 4 3 2 2 2 2 3 3 2 1 1 1 2 2 2 2 3 3 3 3 2 1 0 0
2 2 2 2 2 2 2 2 3 3 3 4 5 5 4 4 5 7 7 6 4 3 2 1 1 2 2 2 2 1 1 1 1 2 2 3 3 3 3 3 2 1 0 0
2 3 3 3 2 2 2 2 3 3 3 4 5 4 4 4 6 7 8 6 5 3 2 1 1 1 1 1 2 1 1 1 1 2 3 2 2 2 2 2 1 0 0 0
2 2 2 2 2 2 2 3 3 3 3 4 4 4 4 5 6 7 7 6 5 3 2 2 1 1 1 1 1 1 2 2 2 2 2 2 1 0 0 0 0 0 0 0
1 1 2 2 2 2 2 3 4 4 4 4 5 5 5 6 6 7 6 6 5 4 3 2 2 1 1 1 1 1 2 2 2 1 1 1 0 0 0 0 0 0 0 0
1 1 1 1 2 2 3 3 4 4 4 5 6 6 6 6 6 6 5 5 5 4 3 2 2 2 1 1 1 1 1 1 1 1 1 0 0 0 0 0 0 0 0 0
1 1 1 1 2 2 3 3 4 4 4 4 5 5 5 5 5 4 4 4 4 3 2 1 1 1 1 0 0 0 0 1 1 1 1 0 0 0 0 0 0 0 0 0
1 1 1 1 1 2 2 3 4 3 3 3 3 3 3 3 3 3 2 2 2 2 1 1 1 1 0 0 0 0 0 0 0 0 0 0 0 0 0 0 0 0 0 0
1 1 1 1 2 2 2 2 2 3 2 2 2 1 1 1 1 1 1 1 1 1 1 1 0 0 0 0 0 0 0 0 0 0 0 0 0 0 0 0 0 0 0 0
0 1 1 2 2 2 2 2 1 1 1 1 1 1 1 1 1 1 0 0 1 1 1 1 0 0 0 0 0 0 0 0 0 0 0 0 0 0 0 0 0 0 0 0
0 0 1 1 2 2 2 1 1 1 1 1 2 2 2 1 1 1 1 0 1 1 1 0 0 0 0 0 0 0 0 0 0 0 0 0 0 0 0 0 0 0 0 0
0 0 1 1 2 2 2 1 1 0 0 1 1 2 2 1 1 1 1 0 0 0 0 0 0 0 0 0 0 0 0 0 0 0 0 0 0 0 0 0 0 0 0 0
1 1 1 1 1 1 1 1 0 0 0 0 1 1 1 1 1 1 0 0 0 0 0 0 0 0 0 0 0 0 0 0 0 0 0 0 0 0 0 0 0 0 0 0
1 1 1 1 1 1 0 0 0 0 0 0 0 1 1 1 1 0 0 0 0 0 0 0 0 0 0 0 0 0 0 0 0 0 0 0 0 0 0 0 0 0 0 0
1 1 1 1 0 0 0 0 0 0 0 0 1 1 1 1 1 0 0 0 0 0 0 0 0 0 0 0 0 0 0 0 0 0 0 0 0 0 0 0 0 0 0 0
1 1 0 0 0 0 0 0 0 0 0 0 1 2 2 1 1 0 0 0 0 0 0 0 0 0 0 0 0 0 0 0 0 0 0 0 0 0 0 0 0 0 0 0
0 0 0 0 0 0 0 0 0 0 0 1 2 2 2 1 1 0 0 0 0 0 0 0 0 0 0 0 0 0 0 0 0 0 0 0 0 0 0 0 0 0 0 0
0 0 0 0 0 0 0 0 0 0 0 1 2 2 2 1 0 0 0 0 0 0 0 0 0 0 0 0 0 0 0 0 0 0 0 0 0 0 0 0 0 0 0 0
0 0 0 0 0 0 0 0 0 0 1 1 2 2 1 1 0 0 0 0 0 0 0 0 0 0 0 0 0 0 0 0 0 0 0 0 0 0 0 0 0 0 0 0
Wind_Speed
4 3 4 4 6 7 6 8 9 8 8 9 7 7 5 5 6 7 7 7 7 7 6 6 6 6 6 5 5 5 6 6 5 4 4 4 4 4 3 3 4 3 4 4
1 1 3 2 4 7 5 5 5 3 7 6 3 3 4 6 7 8 8 7 7 7 7 7 7 7 6 6 6 6 6 6 5 5 4 4 4 4 4 4 3 4 4 4
2 1 2 2 4 5 4 4 6 7 8 2 3 7 8 8 8 8 8 8 8 7 7 7 7 7 7 6 6 6 6 6 5 5 5 4 4 4 4 4 4 5 5 6
4 3 4 8 2 4 4 3 4 4 4 5 5 3 2 4 8 8 8 8 8 8 7 7 7 7 7 7 6 6 5 5 5 5 5 4 4 4 4 4 5 5 5 5
5 4 2 4 1 3 4 2 3 3 2 2 4 5 2 1 4 5 7 7 7 8 8 8 8 8 8 7 6 6 5 4 4 4 5 5 5 4 4 4 5 5 5 6
5 5 6 6 2 1 4 2 2 4 4 5 6 3 3 2 4 6 6 7 8 9 9 9 8 8 8 7 6 6 5 5 4 4 5 5 5 4 4 4 5 5 6 6
5 3 5 5 3 2 5 7 2 4 5 7 5 5 4 5 5 6 7 8 9 10 9 8 8 9 8 7 6 5 5 5 5 5 5 5 5 4 5 5 6 6 7 6
5 3 6 3 2 5 6 2 1 3 4 5 4 4 5 6 6 7 8 8 9 8 7 6 7 8 8 6 5 6 6 6 6 5 5 5 6 5 5 5 6 6 6 6
6 6 4 2 2 2 2 1 1 2 3 6 6 5 6 6 6 7 7 7 7 8 8 6 5 7 8 6 6 7 7 7 6 6 5 5 5 6 5 4 5 4 4 4
1 2 2 2 1 1 0 1 1 2 4 5 6 6 7 6 6 6 6 7 7 8 8 6 5 5 6 7 7 8 8 6 6 6 6 5 4 4 4 4 4 4 4 3
1 2 3 3 2 2 2 3 3 3 3 5 7 7 7 6 7 6 6 7 7 8 8 8 7 6 6 7 8 8 7 6 6 6 6 5 5 4 3 3 2 3 3 3
4 4 3 3 2 1 2 2 2 3 4 4 6 7 7 6 5 6 6 7 7 7 8 8 8 7 6 6 8 9 7 6 5 5 5 5 5 5 8 6 6 6 5 4
3 2 2 2 1 1 1 2 2 4 5 5 5 6 7 6 5 6 6 7 7 7 7 7 7 7 6 6 7 8 7 6 5 5 5 5 4 5 4 5 8 8 6 5
2 2 1 1 1 2 2 3 4 5 5 5 5 6 7 7 6 6 6 6 6 7 7 7 7 6 6 6 7 7 7 7 6 5 5 4 4 4 4 4 3 3 4 5
0 2 3 1 1 2 2 4 5 5 5 5 5 5 6 7 7 5 5 6 7 7 7 7 7 6 5 7 7 7 6 5 5 5 4 4 4 4 4 4 4 3 2 3
0 2 2 2 2 2 2 3 4 4 4 4 4 5 5 6 6 6 5 6 7 7 6 7 6 6 6 7 7 6 5 8 8 6 5 5 4 4 4 4 3 3 2 2
2 1 2 2 2 2 2 2 2 3 3 4 5 6 6 6 6 5 4 4 5 5 5 5 5 6 6 7 7 5 5 6 9 6 5 5 5 4 4 4 3 3 2 2
4 4 3 4 3 3 3 3 3 4 4 5 6 7 7 7 6 5 5 5 5 5 3 3 5 6 6 6 6 5 5 5 5 5 5 4 4 4 4 4 4 3 2 2
3 3 2 2 2 3 4 3 3 3 3 5 7 7 6 6 6 6 6 6 6 4 2 3 6 6 6 6 7 5 6 6 5 5 4 5 5 4 4 4 3 3 3 3
2 2 2 2 3 3 3 3 3 3 3 5 7 7 6 6 6 6 6 4 2 2 3 5 6 5 5 6 7 5 6 6 6 5 5 5 4 4 3 3 3 3 3 3
3 3 4 3 3 3 3 3 4 4 4 5 6 7 6 6 6 6 5 3 1 2 4 6 5 4 4 5 6 5 5 6 6 5 5 5 4 4 3 3 3 3 3 2
3 3 4 4 4 3 2 3 4 5 5 5 6 7 7 6 6 5 3 2 3 4 4 4 4 5 6 7 5 5 5 5 5 5 5 5 4 4 3 3 3 3 3 2
3 3 4 4 4 3 3 3 4 4 5 5 5 6 6 5 4 4 3 2 3 5 4 3 5 8 9 6 5 5 5 5 5 5 5 4 4 4 4 4 4 3 3 3
3 3 3 4 5 5 4 4 4 4 5 4 4 5 5 5 3 2 3 5 6 6 4 5 9 9 7 4 5 5 4 4 4 4 4 4 3 3 3 4 4 3 3 4
3 4 4 4 4 3 4 5 5 5 5 4 4 4 3 3 4 3 4 5 7 7 5 6 9 8 5 4 4 4 4 4 4 4 3 3 3 3 3 3 3 3 3 3
3 3 2 2 2 3 3 4 4 3 4 4 3 3 3 3 4 4 4 5 7 7 5 4 4 5 4 4 4 4 3 3 4 3 3 3 3 3 3 3 3 3 3 3
3 3 3 3 3 3 3 4 4 3 3 4 4 3 4 4 5 5 6 5 5 5 4 4 4 4 4 4 4 3 3 3 3 3 3 3 3 3 3 3 2 2 2 2
Wind_Direction
200 202 167 159 164 166 165 173 175 219 224 245 231 214 200 173 157 154 159 159 156 149 141 137 134 129 129 126 120 119 114 112 111 106 106 106 100 94 86 81 77 73 69 56
153 216 175 154 168 171 178 172 195 206 246 249 221 172 177 179 171 169 170 165 158 152 147 146 143 138 132 127 121 119 116 113 108 105 101 98 96 96 91 83 74 74 69 64
188 255 100 231 203 175 178 186 173 198 233 206 185 191 190 186 178 175 170 162 159 157 154 150 146 142 137 130 120 115 113 112 109 106 98 90 91 91 88 82 78 73 68 68
133 119 194 241 252 169 162 196 203 223 239 204 199 183 172 170 171 169 163 159 156 151 144 137 134 132 128 125 121 118 117 114 112 109 104 99 93 89 86 82 80 77 70 69
121 149 241 288 223 158 153 241 217 207 227 139 113 79 32 127 156 161 156 150 148 144 139 136 135 133 127 125 124 123 126 125 121 120 117 111 105 101 98 95 85 78 72 70
121 138 201 233 259 231 117 284 261 180 171 151 123 127 239 173 136 133 135 138 137 133 130 134 135 132 129 132 134 138 138 132 121 115 119 118 116 109 99 98 95 89 76 66
131 156 241 253 285 101 146 228 238 178 169 158 170 186 168 134 129 129 130 131 132 132 137 142 141 137 135 137 142 138 129 122 111 105 108 114 109 102 105 102 94 86 80 65
130 144 237 282 94 158 207 237 181 172 162 154 142 119 118 123 126 124 122 124 129 130 131 133 137 137 136 141 136 127 125 120 111 107 110 109 108 101 100 104 99 91 84 70
174 198 234 270 227 242 190 195 205 162 152 141 132 126 122 122 124 123 122 125 128 130 128 127 134 141 140 140 132 128 122 117 113 106 97 102 109 109 99 94 98 95 90 83
117 283 294 303 310 346 191 197 191 154 144 138 135 134 128 126 125 123 124 127 126 127 131 135 136 135 138 135 133 128 126 124 120 113 103 92 92 101 107 108 107 106 105 99
89 290 340 345 6 22 37 54 73 88 122 136 132 132 133 132 131 134 135 134 133 138 141 143 138 130 130 135 132 127 125 123 118 115 115 103 86 71 87 83 112 129 130 128
205 222 195 253 300 10 68 65 80 101 97 105 129 135 131 130 130 129 132 130 132 137 140 143 139 136 136 139 136 133 132 131 129 127 125 122 113 87 58 72 78 89 105 119
211 205 195 243 319 12 99 93 99 112 125 121 117 130 131 130 127 125 128 135 140 141 141 139 137 137 140 142 138 137 140 139 135 136 136 135 132 125 105 66 66 72 80 96
183 126 75 343 1 35 83 90 89 88 94 108 114 120 122 120 122 125 134 138 135 133 134 137 137 139 142 141 136 133 133 136 136 138 138 138 137 132 128 126 109 70 50 69
272 173 180 184 71 64 87 100 100 98 99 100 108 119 126 127 130 130 128 128 127 128 133 139 140 142 139 139 136 135 135 137 133 130 128 126 125 124 123 121 119 107 80 56
106 92 122 134 144 129 110 113 119 124 129 131 127 122 121 122 120 119 124 133 137 144 149 149 151 149 141 139 135 133 135 138 135 131 128 126 127 129 130 129 127 126 125 117
149 164 170 169 176 164 144 133 134 140 143 143 139 126 120 119 116 118 120 119 126 133 141 146 147 140 140 140 138 138 135 138 135 133 137 140 141 143 143 143 144 146 145 136
191 201 206 193 187 169 147 138 139 141 153 147 132 129 134 140 142 141 134 121 114 110 115 133 139 139 140 140 137 137 137 140 143 143 141 142 145 146 147 150 153 152 136 124
185 184 207 197 171 149 150 154 151 147 149 138 135 140 143 142 141 137 131 128 133 140 146 138 136 137 138 142 139 138 140 142 140 137 136 139 140 144 148 149 150 152 150 149
146 143 137 112 104 109 118 128 135 140 141 137 135 135 135 136 134 132 128 129 147 157 150 144 141 140 141 144 139 140 145 147 145 143 141 144 150 152 152 152 155 159 164 172
132 133 129 118 108 107 120 129 132 133 131 136 143 145 140 133 130 133 133 133 131 123 130 136 138 140 139 140 138 138 144 146 149 151 152 153 153 152 155 159 164 168 174 181
117 125 129 123 115 106 105 116 125 128 125 123 126 126 127 127 126 120 117 138 143 137 134 138 139 140 140 138 137 137 140 144 145 147 149 152 155 159 164 168 173 176 179 186
114 124 124 122 123 116 98 103 118 124 123 127 129 131 133 135 138 140 141 136 132 133 131 134 136 137 136 132 134 137 141 145 149 154 157 161 166 170 173 178 182 182 184 190
97 102 105 109 110 109 105 98 97 98 103 105 112 125 131 129 115 105 121 129 126 126 121 129 132 133 131 130 133 137 144 148 149 150 151 155 160 168 175 179 183 187 190 193
89 93 100 106 106 112 117 111 102 99 100 96 95 98 105 122 133 133 126 126 126 123 122 129 129 127 126 126 130 134 139 144 145 145 148 156 163 170 178 182 186 191 196 202
88 90 91 97 111 121 122 120 117 116 117 112 101 100 104 105 112 115 115 118 121 122 120 124 129 127 123 123 128 132 133 135 139 146 156 159 162 164 169 178 187 196 204 208
80 82 84 80 78 93 108 116 122 125 129 129 122 118 119 117 116 117 116 117 119 116 113 114 120 125 125 128 130 130 130 132 138 145 152 155 159 168 176 179 184 187 193 200